MOLNIYA 3-41

Last updated on Oct. 29, 2020, 5:52 a.m. UTC

1 21706U 91065A   20301.91422068  .00000117  00000-0  00000-0 0  9994
2 21706  64.1433 228.0276 6727316 263.0351  22.3256  2.04359995214708
UTC
Height (km)
Latitude
Longitude
Inclination
Orbital Period
UTC large
Height (km)
Speed (km/s)
/
Latitude / Longitude
Inclination (degrees)
Orbital Period (minutes)
Azimuth
Elevation
Range (km)
Doppler Factor
iOS Compass Heading
iOS Angle

Next 30 passes for location: Hong Kong

Rise time Rise Azimuth (degrees) Set time Set Azimuth (degrees) Duration Max altitude (degrees)

No matching passes for this satellites